FW1825 Weather Reports


Display with metric or nautical units.
time (UTC)temp
F
wind
direction
speed
MPH
gust
MPH
rain 1hr
in
rain 24hr
in
rain mn
in
humidity
%
barometer
mb
20260504060203 47 226 3.0 6.0 0.00 0.00 0.00 60 1009.1
20260504050643 48 165 6.0 10.0 0.00 0.00 0.00 58 1009.1
20260504050140 48 167 5.0 10.0 0.00 0.00 0.00 57 1009.2
20260504045641 48 158 5.0 9.0 0.00 0.00 0.00 57 1009.2
20260504045140 49 167 4.0 9.0 0.00 0.00 0.00 56 1009.2
20260504044639 49 161 4.0 6.0 0.00 0.00 0.00 57 1009.2
20260504044137 49 155 4.0 8.0 0.00 0.00 0.00 56 1009.1
20260504043634 49 166 4.0 8.0 0.00 0.00 0.00 55 1009.1
20260504043135 49 160 3.0 6.0 0.00 0.00 0.00 56 1009.1
20260504042634 49 171 3.0 6.0 0.00 0.00 0.00 57 1009.1
20260504042133 49 171 3.0 6.0 0.00 0.00 0.00 55 1009.1
20260504041634 49 173 3.0 6.0 0.00 0.00 0.00 56 1009.1
20260504041131 49 180 2.0 5.0 0.00 0.00 0.00 56 1009.2
20260504040632 49 182 2.0 5.0 0.00 0.00 0.00 55 1009.1
20260504040132 50 188 3.0 5.0 0.00 0.00 0.00 56 1009.2
20260504035633 50 181 2.0 5.0 0.00 0.00 0.00 57 1009.2
20260504035132 50 184 1.0 5.0 0.00 0.00 0.00 56 1009.2
20260504034853 49 238 1.0 3.0 0.00 0.00 0.00 57 1009.2
20260504034349 49 238 0.0 3.0 0.00 0.00 0.00 57 1009.2
20260504033629 49 254 0.0 2.0 0.00 0.00 0.00 58 1009.2
20260504033122 49 254 0.0 0.0 0.00 0.00 0.00 58 1009.2
20260504032617 49 254 0.0 0.0 0.00 0.00 0.00 60 1009.2
20260504032111 49 254 0.0 0.0 0.00 0.00 0.00 57 1009.3
20260504031613 49 254 0.0 1.0 0.00 0.00 0.00 57 1009.3
20260504031110 49 254 0.0 2.0 0.00 0.00 0.00 56 1009.4
20260504030830 49 254 0.0 2.0 0.00 0.00 0.00 56 1009.4
20260504025604 50 254 1.0 3.0 0.00 0.00 0.00 56 1009.5
20260504025104 50 254 1.0 3.0 0.00 0.00 0.00 56 1009.5
20260504024603 50 254 1.0 3.0 0.00 0.00 0.00 57 1009.6
20260504024102 50 254 1.0 4.0 0.00 0.00 0.00 57 1009.5
20260504023559 50 253 2.0 4.0 0.00 0.00 0.00 57 1009.7
20260504023058 50 252 3.0 6.0 0.00 0.00 0.00 57 1009.7
20260504022558 50 252 4.0 9.0 0.00 0.00 0.00 57 1009.7
20260504022059 50 251 5.0 9.0 0.00 0.00 0.00 57 1009.7
20260504021557 50 250 5.0 8.0 0.00 0.00 0.00 58 1009.7
20260504021320 50 257 6.0 12.0 0.00 0.00 0.00 57 1009.7
20260504020558 50 265 8.0 12.0 0.00 0.00 0.00 57 1009.6
20260504020055 50 245 8.0 12.0 0.00 0.00 0.00 56 1009.7
20260504015557 50 257 8.0 15.0 0.00 0.00 0.00 57 1009.7
20260504015056 51 262 10.0 17.0 0.00 0.00 0.00 56 1009.6
20260504014822 51 242 12.0 17.0 0.00 0.00 0.00 55 1009.6
20260504014055 51 221 12.0 22.0 0.00 0.00 0.00 55 1009.5
20260504013553 50 254 11.0 22.0 0.00 0.00 0.00 56 1009.5
20260504013053 50 258 12.0 28.0 0.00 0.00 0.00 57 1009.7
20260504012554 50 261 16.0 29.0 0.00 0.00 0.00 56 1009.9
20260504012053 51 259 14.0 26.0 0.00 0.00 0.00 55 1009.9
20260504011553 51 263 10.0 19.0 0.00 0.00 0.00 54 1009.6
20260504011054 51 278 6.0 14.0 0.00 0.00 0.00 54 1009.6
20260504010821 51 252 5.0 11.0 0.00 0.00 0.00 54 1009.3
20260504010053 51 241 6.0 16.0 0.00 0.00 0.00 55 1009.3
20260504005554 51 224 9.0 16.0 0.00 0.00 0.00 54 1009.5
20260504005546 51 221 11.0 16.0 0.00 0.00 0.00 54 1009.7
20260504004553 51 279 9.0 16.0 0.00 0.00 0.00 54 1009.2
20260504004054 51 283 7.0 13.0 0.00 0.00 0.00 55 1009.5
20260504003553 51 241 8.0 15.0 0.00 0.00 0.00 54 1009.3
20260504003053 50 240 6.0 15.0 0.00 0.00 0.00 55 1009.3
20260504002822 50 266 3.0 7.0 0.00 0.00 0.00 58 1009.2
20260504002056 50 256 4.0 9.0 0.00 0.00 0.00 59 1009.2
20260504001552 50 288 7.0 18.0 0.00 0.00 0.00 58 1009.1
20260504001046 50 314 11.0 18.0 0.00 0.00 0.00 56 1009.3
20260504000538 51 275 14.0 24.0 0.00 0.00 0.00 56 1009.4
20260504000032 51 298 16.0 24.0 0.00 0.00 0.00 55 1009.4
20260503235529 50 256 16.0 24.0 0.00 0.00 0.00 56 1009.2
20260503235027 50 255 17.0 29.0 0.00 0.00 0.00 59 1009.6
20260503234747 51 293 14.0 29.0 0.00 0.00 0.00 56 1009.5
20260503234027 51 294 6.0 17.0 0.00 0.00 0.00 56 1009.4
20260503233751 51 288 3.0 8.0 0.00 0.00 0.00 57 1009.2
20260503233027 51 329 4.0 13.0 0.00 0.00 0.00 57 1009.0
20260503232528 51 294 5.0 13.0 0.00 0.00 0.00 55 1008.9
20260503232027 51 236 4.0 8.0 0.00 0.00 0.00 55 1008.6
20260503231527 51 251 4.0 8.0 0.00 0.00 0.00 55 1008.6
20260503231027 51 249 4.0 8.0 0.00 0.00 0.00 55 1008.5
20260503230748 51 236 5.0 8.0 0.00 0.00 0.00 54 1008.5
20260503230027 51 234 5.0 8.0 0.00 0.00 0.00 52 1008.4
20260503225528 51 263 4.0 8.0 0.00 0.00 0.00 53 1008.4
20260503225027 52 230 4.0 8.0 0.00 0.00 0.00 53 1008.3
20260503224527 53 252 3.0 6.0 0.00 0.00 0.00 57 1008.4
20260503224027 52 247 5.0 9.0 0.00 0.00 0.00 56 1008.4
20260503223526 52 261 6.0 9.0 0.00 0.00 0.00 55 1008.3
20260503223026 52 263 5.0 8.0 0.00 0.00 0.00 53 1008.4
20260503223006 52 254 6.0 9.0 0.00 0.00 0.00 52 1008.4
20260503222014 52 278 8.0 15.0 0.00 0.00 0.00 53 1008.5
20260503221508 53 240 9.0 15.0 0.00 0.00 0.00 51 1008.5
20260503221225 53 259 8.0 13.0 0.00 0.00 0.00 53 1008.7
20260503220455 53 252 10.0 16.0 0.00 0.00 0.00 52 1008.6
20260503220214 52 252 11.0 16.0 0.00 0.00 0.00 52 1008.6
20260503215454 53 250 11.0 15.0 0.00 0.00 0.00 52 1008.7
20260503214953 53 264 11.0 16.0 0.00 0.00 0.00 54 1008.9
20260503214453 53 262 9.0 16.0 0.00 0.00 0.00 51 1008.7
20260503213953 53 250 9.0 18.0 0.00 0.00 0.00 53 1008.7
20260503213453 53 294 12.0 19.0 0.00 0.00 0.00 51 1008.9
20260503212953 53 244 12.0 19.0 0.00 0.00 0.00 53 1008.7
20260503212453 53 274 13.0 24.0 0.00 0.00 0.00 55 1008.9
20260503211953 53 252 14.0 24.0 0.00 0.00 0.00 50 1008.7
20260503211453 53 261 13.0 19.0 0.00 0.00 0.00 52 1008.7
20260503211210 53 250 12.0 18.0 0.00 0.00 0.00 52 1008.6
20260503210454 52 292 12.0 18.0 0.00 0.00 0.00 54 1008.7
20260503210435 52 292 11.0 18.0 0.00 0.00 0.00 55 1008.7
20260503205453 51 275 11.0 18.0 0.00 0.00 0.00 56 1008.9
20260503204954 51 256 12.0 21.0 0.00 0.00 0.00 54 1009.9
20260503204454 51 269 13.0 21.0 0.00 0.00 0.00 55 1009.9
20260503203954 51 274 14.0 24.0 0.00 0.00 0.00 54 1009.9
20260503203452 51 275 13.0 24.0 0.00 0.00 0.00 54 1010.0
20260503202953 51 290 13.0 21.0 0.00 0.00 0.00 58 1010.2
20260503202450 50 275 14.0 24.0 0.00 0.00 0.00 54 1010.0
20260503201949 50 291 14.0 24.0 0.00 0.00 0.00 53 1010.1
20260503201449 51 256 10.0 18.0 0.00 0.00 0.00 53 1010.1
20260503200950 51 282 11.0 21.0 0.00 0.00 0.00 55 1010.2
20260503200449 52 284 14.0 23.0 0.00 0.00 0.00 53 1010.3
20260503195948 53 296 14.0 23.0 0.00 0.00 0.00 55 1010.4
20260503195450 52 272 12.0 18.0 0.00 0.00 0.00 57 1010.4
20260503194948 52 255 12.0 19.0 0.00 0.00 0.00 58 1010.5
20260503194449 51 282 12.0 19.0 0.00 0.00 0.00 54 1010.5
20260503193949 50 289 11.0 19.0 0.00 0.00 0.00 57 1010.5
20260503193449 50 256 11.0 17.0 0.00 0.00 0.00 55 1010.6
20260503192949 50 284 11.0 18.0 0.00 0.00 0.00 55 1010.6
20260503192450 50 315 12.0 18.0 0.00 0.00 0.00 54 1010.7
20260503191950 50 276 14.0 21.0 0.00 0.00 0.00 54 1010.8
20260503191712 50 267 14.0 22.0 0.00 0.00 0.00 54 1010.8
20260503190950 50 276 15.0 25.0 0.00 0.00 0.00 55 1010.7
20260503190449 50 271 15.0 25.0 0.00 0.00 0.00 53 1010.9
20260503185948 52 313 11.0 22.0 0.00 0.00 0.00 50 1010.9
20260503185449 53 325 9.0 18.0 0.00 0.00 0.00 55 1010.9
20260503184950 53 294 11.0 18.0 0.00 0.00 0.00 52 1011.3
20260503184448 51 329 12.0 20.0 0.00 0.00 0.00 54 1011.1
20260503183949 51 273 14.0 23.0 0.00 0.00 0.00 55 1011.3
20260503183451 50 290 15.0 23.0 0.00 0.00 0.00 55 1011.0
20260503183211 49 291 15.0 21.0 0.00 0.00 0.00 54 1011.0
20260503182447 49 264 14.0 22.0 0.00 0.00 0.00 56 1011.1
20260503182207 49 277 11.0 22.0 0.00 0.00 0.00 54 1011.1
20260503181705 51 233 10.0 16.0 0.00 0.00 0.00 51 1011.4
20260503180942 51 288 12.0 20.0 0.00 0.00 0.00 54 1011.5
20260503180444 51 296 12.0 20.0 0.00 0.00 0.00 53 1011.6
20260503175944 50 290 11.0 20.0 0.00 0.00 0.00 54 1011.6
20260503175711 50 277 11.0 21.0 0.00 0.00 0.00 51 1011.5
20260503174937 52 355 12.0 21.0 0.00 0.00 0.00 57 1011.8
20260503174438 51 286 11.0 20.0 0.00 0.00 0.00 55 1011.7
20260503174153 51 263 10.0 20.0 0.00 0.00 0.00 49 1011.7
20260503173656 50 328 11.0 16.0 0.00 0.00 0.00 55 1011.7
20260503172933 50 280 12.0 20.0 0.00 0.00 0.00 53 1011.8
20260503172656 50 259 11.0 20.0 0.00 0.00 0.00 55 1011.7
20260503171934 49 277 10.0 18.0 0.00 0.00 0.00 57 1011.6
20260503171432 49 260 10.0 18.0 0.00 0.00 0.00 54 1011.6
20260503170930 49 306 10.0 18.0 0.00 0.00 0.00 56 1011.8
20260503170430 48 246 10.0 19.0 0.00 0.00 0.00 56 1011.7
20260503170159 47 321 9.0 20.0 0.00 0.00 0.00 59 1011.7
20260503150921 44 290 12.0 23.0 0.00 0.00 0.00 57 1012.6
20260503150421 44 273 11.0 22.0 0.00 0.00 0.00 56 1012.7
20260503131400 40 293 12.0 24.0 0.00 0.00 0.00 61 1012.0
20260503130901 40 288 13.0 24.0 0.00 0.00 0.00 64 1012.1
20260503130400 40 296 12.0 24.0 0.00 0.00 0.00 64 1012.0
20260503110334 34 282 5.0 8.0 0.00 0.00 0.00 83 1011.1
20260503081209 35 286 3.0 5.0 0.00 0.00 0.00 82 1010.7
20260503080708 35 297 2.0 5.0 0.00 0.00 0.00 81 1010.8
20260503080211 35 301 2.0 7.0 0.00 0.00 0.00 81 1010.8
20260503072644 35 298 1.0 4.0 0.00 0.00 0.00 81 1010.8
20260503072140 35 293 0.0 3.0 0.00 0.00 0.00 81 1010.8
20260503071855 35 293 0.0 3.0 0.00 0.00 0.00 81 1010.8
20260503071136 35 290 1.0 4.0 0.00 0.00 0.00 81 1010.8
20260503071112 35 290 1.0 4.0 0.00 0.00 0.00 80 1010.9
20260503070129 35 288 0.0 3.0 0.00 0.00 0.00 80 1010.9